This is the latest recevied weather packets stored in our database for station/object DB0LC-2. If no packets are shown the sender has not sent any weather packets the latest 10 day(s).
| Time | Temp. | Humidity | Pressure | Rain* | Wind** | Luminosity | Snow |
|---|---|---|---|---|---|---|---|
| 1777795422 | 19.44° C | 28% | 913.1 hPa | 0 mm | - | - | - |
| 1777794771 | 18.89° C | 29% | 913 hPa | 0 mm | - | - | - |
| 1777794161 | 19.44° C | 28% | 913 hPa | 0 mm | - | - | - |
| 1777793520 | 19.44° C | 28% | 912.8 hPa | 0 mm | - | - | - |
| 1777792920 | 20° C | 28% | 912.8 hPa | 0 mm | - | - | - |
| 1777792285 | 19.44° C | 28% | 912.8 hPa | 0 mm | - | - | - |
| 1777791670 | 19.44° C | 28% | 912.9 hPa | 0 mm | - | - | - |
| 1777791034 | 20° C | 28% | 912.8 hPa | 0 mm | - | - | - |
| 1777790411 | 19.44° C | 28% | 912.8 hPa | 0 mm | - | - | - |
| 1777789763 | 19.44° C | 28% | 912.8 hPa | 0 mm | - | - | - |
| 1777788510 | 20° C | 28% | 912.7 hPa | 0 mm | - | - | - |
| 1777787299 | 19.44° C | 28% | 912.7 hPa | 0 mm | - | - | - |
| 1777786687 | 20° C | 28% | 912.7 hPa | 0 mm | - | - | - |
| 1777786686 | 20° C | 28% | 912.5 hPa | 0 mm | - | - | - |
| 1777786073 | 19.44° C | 28% | 912.8 hPa | 0 mm | - | - | - |
| 1777785460 | 19.44° C | 28% | 912.7 hPa | 0 mm | - | - | - |
| 1777784850 | 19.44° C | 27% | 912.7 hPa | 0 mm | - | - | - |
| 1777784848 | 19.44° C | 27% | 912.8 hPa | 0 mm | - | - | - |
| 1777784225 | 20° C | 28% | 912.9 hPa | 0 mm | - | - | - |
| 1777783578 | 19.44° C | 28% | 912.9 hPa | 0 mm | - | - | - |
| 1777782968 | 18.89° C | 28% | 912.9 hPa | 0 mm | - | - | - |
| 1777782342 | 20° C | 28% | 912.9 hPa | 0 mm | - | - | - |
| 1777781721 | 19.44° C | 28% | 912.9 hPa | 0 mm | - | - | - |
| 1777781095 | 19.44° C | 28% | 912.9 hPa | 0 mm | - | - | - |
| 1777779232 | 19.44° C | 28% | 913 hPa | 0 mm | - | - | - |
* Rain latest hour (hover to see other rain measurements)
** Current wind speed in m/s (hover to see current wind gust speed)